Race Results for
The 48th Annual Debaets-Devos Pro-Am Memorial Bicy
Auburn HIlls, MI
(Event Information)
View By:
Criterium on 09/03/2012

Note: Ranking points are NOT upgrade points. An explanation of ranking points can be found here.


Men - CAT 5 - 1-34

 Place Points NameCity, StateTime USAC #BibTeam
1533.36Cameron Mason   0:29:05.48 387805  218 
2536.69Matthew Ronan   Howell0:29:05.52 320732  211 
3540.02christian ricci   0:29:06.04 387624  217 
4543.35Matthew Norton   Comstock Park, MI0:29:06.62 386840  208 
5546.68Bradley Field   Howell, MI0:29:08.68 382280  201 
6550.01Alec Womboldt   Dewitt, MI0:29:08.86 384507  215 
7553.34Kenneth Robison   Jackson0:29:09.26 383947  210 Wolverine Sports Club
8556.67Andrew Herbel   Rockford, MI0:29:09.45 384513  205 
9560.00Alex Gonzalez   Ortonville, MI0:29:09.49 265107  203 Team Sandbag
10563.33Kyle Wernert   Monroe, MI0:29:09.59 381101  214 
11566.66Joseph Kennedy   Portland , MI0:29:09.61 361337  207 CFT Cycling Team/CFT Cycling Te
12William Caruso   0:29:09.69  216 Southern Maine Cycling Club
13573.32Brian Oppmann   West Bloomfield, MI0:29:09.93 304729  209 
14576.65Sean Torrez   Exeter, NH0:29:17.03 375767  213 
15579.98Nicholas Kehoe   Macomb, MI0:29:54.65 376188  206 Wolverine Sports Club
16583.31Daniel Tierney   Monclova, OH0:30:23.48 366213  212 
17586.64Steve Colarossi   Oakland Twp, MI0:30:44.15 387839  200 
18589.97Joe Guarr   Waterford, MI0:31:02.51 385054  204 
DNFEric Garnham   Sterling Heights, MI 387829  202 

Men - CAT 5 - 35-99

 Place Points NameCity, StateTime USAC #BibTeam
1475.56Tim Martin   Clarkston, MI0:29:36.66 378892  265 
2479.14Nick Mossing   Holland, OH0:29:36.86 367918  267 Maumee Valley Wheelmen
3482.72Edwin Ho   Royal Oak, MI0:29:37.12 369604  281 
4486.30Christopher Donnelly   Birmingham, MI0:29:37.25 74343  257 Team O2/Cadieux Bicycle Club
5489.88Scott Adema   Commerce Twp, MI0:29:37.45 370479  252 
6493.46Michael Adams   Saline, MI0:29:37.53 295354  251 Cycle To Fitness Racing Greyhou
7497.04Jeffrey Potoff   Southfield, MI0:29:37.97 81316  277 
8500.62Kevin Gamper   Holt, MI0:29:38.10 364775  261 CFT Cycling Team/CFT Cycling Te
9504.20David Colletti   Troy, MI0:29:38.20 372266  254 
10507.78James Combs   Grosse Pointe Farms, MI0:29:38.25 217299  255 
11Jonathan Smith   0:29:38.42  280 
12514.94Geoffrey Fleury   Riverview, MI0:29:38.71 375813  258 
13518.52Jay Adams   Macomb, MI0:29:39.11 386103  250 
14522.10gary verrier   Macomb0:29:39.20 387148  275 
15525.68albert lake   Washington, MI0:29:39.43 288072  264 Team O2/Cadieux Bicycle Club
16529.26Matthew Johnson   Plymouth, MI0:29:39.49 101423  263 
17532.84Mike Franskoviak   Clarkston, MI0:29:39.51 373488  259 Flying Rhino Cycling Club
18536.42Michael Sims   Detroit, MI0:29:39.73 384520  271 Team O2/Cadieux Bicycle Club
19540.00Briggs Pille   Rochester Hills, MI0:29:39.79 352778  269 KLM/Cold Stone
20543.58Mark Olin   Rochester, MI0:29:39.96 270538  268 
21547.16David Trimmer   Farmington Hills, MI0:29:40.22 375503  273 
22550.74Frank Marciniak   Rochester, MI0:29:40.84 22458  284 
23Ken Shector   0:29:41.00  282 
24557.90William Burt   Taylor, MI0:29:41.07 336820  253 
25561.48Matthew Sheppard   Royal Oak, MI0:29:42.38 175671  279 
26565.06Conrad Mrowiec   0:29:43.44 356846  283 
27568.64Mark Rionda   Grosse Pointe Farms, MI0:29:45.15 387607  270 
28572.22Philip Huyghe   Rochester, MI0:29:52.42 372444  262 Team O2/Cadieux Bicycle Club
29575.80Thomas DiJulio   Grosse Pointe Park, MI0:29:53.42 324742  256 
30579.38Brett Stacey   Wixom, MI0:29:54.97 375932  272 
31582.96Brian Frost   Auburn Hillsauburn Hills, MI0:30:05.90 387835  260 
32586.54Paul Tunney   Novi, MI0:30:06.95 387184  274 
33Bill VanCoillie   0:30:31.84  278 
DNFEric Mitchell   Grosse Pointe Park, MI 283441  266 
DNFDan Hudock     276 

Men - CAT 4

 Place Points NameCity, StateTime USAC #BibTeam
1358.58Nick Laughton   Rochester, MI0:38:51.91 233026  362 Team O2/Cadieux Bicycle Club
2364.54Kevin Daum   Mount Pleasant, MI0:38:51.92 353030  353 Tri-City Cyclists/Tri City Cycl
3370.50Jody Cagle   Royal Oak, MI0:38:52.17 345740  352 Cycle To Fitness Racing Greyhou
4376.46David Richardson   Rochester, NY0:38:52.27 367420  370 
5382.42Matthew Hepp   Howell, MI0:38:52.36 323106  359 Cyclefit Sports Club
6388.38Enrique Jackson   Garden City, MI0:38:53.94 257101  361 Wolverine Sports Club
7394.34Mike VandenBerg   Grand Rapids, MI0:38:53.96 356422  376 Leadout Racing
8400.30Ken Misch   Carmel, IN0:38:54.65 251397  366 Flying Rhino Cycling Club
9406.26Caleb Williams   Grand Rapids, MI0:38:55.71 250823  379 Leadout Racing
10412.22Jeff Warner   Temperance, MI0:38:56.11 249166  384 Maumee Valley Wheelmen
11418.18Aric Dershem   Grand Rapids, MI0:38:56.57 361108  354 Leadout Racing
12424.14Karim Marrouch   0:38:56.80 387736  365 Kallisto Wheels of Oakville
13430.10Todd Greene   Bloomfield Hills, MI0:39:00.44 294910  358 Trails-Edge Cycling Team/Midwes
14436.06Thomas Novitsky   Northville, MI0:39:00.49 227191  369 Cycle To Fitness Racing Greyhou
15442.02Douglas Gatto   Allen Park, MI0:39:00.66 196826  357 Trails-Edge Cycling Team/Midwes
16447.98Nigel Mullis   Rochester, MI0:39:02.67 333396  367 Team O2/Cadieux Bicycle Club
17453.94Peter Vajda   Ferndale, MI0:39:03.66 364638  375 Team O2/Cadieux Bicycle Club
18459.90Alex Huyghe   Berkley, MI0:39:12.84 334636  360 Team O2/Cadieux Bicycle Club
19465.86Michael Emerson   Rochester, MI0:39:12.86 339244  355 Team O2/Cadieux Bicycle Club
20471.82Samuel Abouzeid   Rochester Hills, MI0:39:13.05 344234  350 Team O2/Cadieux Bicycle Club
21477.78Luke Mullis   Rochester Hills, MI0:39:15.35 296792  368 Wolverine Sports Club
22483.74Scott Weiss   Novi, MI0:39:18.10 341948  378 Racing Greyhounds
23489.70BJ Steketee   Hudsonville, MI0:39:34.50 386666  374 Ascension Cycling
24495.66Benjamin Groenhout   Seattle, WA0:39:38.18 356691  382 Leadout Racing
25501.62Elliot Sarnacki   Royal Oak, MI0:39:44.73 357758  372 
26507.58Paul Gregory   Greensboro, NC0:39:53.27 311269  381 CFT Cycling Team
27513.54Tim Schutt   Whitmore Lake, MI0:41:20.06 286397  373 Ann Arbor Velo Club/Ann Arbor
28519.50Nickolaus Lekovish   San Diego, CA0:42:12.53 342874  363 Trails-Edge Cycling Team/Midwes
29525.46Seth Fickel   Chesterton, IN0:43:07.03 283239  356 
30531.42Ryan Hartwell   Saint Joseph, MI0:44:22.67 296639  383 Leadout Racing
DNSJoe Miessner   Ann Arbor, MI 309818  380 Ann Arbor Velo Club
DNSDerek Sargent   St Clair, MI 333556  371 Team Sandbag
DNSDavid Lesko   Brighton, MI 298508  364 Ventus Cycling Team
DNFKeegan Korienek   Grandville, MI 314012  188 Leadout Racing
DNFMichael Schultz   Farmington, MI 60984  377 Cadieux Bicycle Club
DNFJim Bonnell   Waterford, MI 322724  351 Trails-Edge Cycling Team/Midwes

Men - CAT 3

 Place Points NameCity, StateTime USAC #BibTeam
1198.66Craig Newell   Williamston Mi0:45:10.51 308443  314 CFT Cycling Team/CFT Cycling Te
2Bryce Nuivor   0:45:10.63  324 East Hills Velo/Ada Bike Club
3214.32Brent Delrosario   Rochester Mi0:45:10.65 232619  327 Wolverine Sports Club
4222.15Derek Delzer   Troy, MI0:45:10.71 317058  305 
5229.98Lucas Oostindie   Middleville, MI0:45:11.65 268132  315 East Hills Velo/Ada Bike Club
6237.81Matt Walp   Valencia, CA0:45:12.00 111671  326 Wheels in Motion
7245.64Christopher Abston   Livonia, MI0:45:12.02 365708  300 Racing Greyhounds
8253.47Nate Benke   Plymouth, MI0:45:12.12 284145  301 Ventus Cycling Team
9261.30Patrick Robb   Royal Oak, MI0:45:12.15 48371  325 Wolverine Sports Club
10269.13Colin Hebert   Brighton, MI0:45:12.19 293700  307 Ann Arbor Velo Club
11276.96Joseph Lekovish   Northville, MI0:45:12.41 166429  309 Trails-Edge Cycling Team/Midwes
12284.79Woody Marrouch   0:45:12.93 387737  310 Kallisto Wheels of Oakville
13292.62William Cawthorn   Ann Arbor, MI0:45:13.13 312882  304 Ann Arbor Velo Club/Ann Arbor
14300.45John Risk   Birmingham, MI0:45:13.28 98726  316 Wolverine Sports Club
15308.28Clayton Monahan   Birmingham, MI0:45:13.72 310102  313 Michigan Cycling Club/Universit
16316.11Jerry Gase II   W. Bloomfield, MI0:45:13.98 269005  306 Team O2/Cadieux Bicycle Club
17323.94Drew Martin   Ada, MI0:45:14.05 292972  311 East Hills Velo/Ada Bike Club
18331.77Kevin Dittmer   Novi, MI0:45:14.41 279592  322 Racing Greyhounds
19339.60Paul Wright   Holly, MI0:45:18.57 51282  320 Flying Rhino Cycling Club
20347.43Aaron VandeWege   Rockford, MI0:45:27.88 334316  318 Speed Merchants
21355.26Justin Sprung   Portage0:45:34.21 274267  321 CMS Race Team
22363.09Trae Bott   Blanchard, MI0:45:40.35 273675  302 Ventus Cycling Team
23370.92Douglas Burcicki   Canton, MI0:45:40.43 228512  303 Team O2/Cadieux Bicycle Club
24378.75Aaron Rieder   Westland, MI0:46:18.10 290810  323 Racing Greyhounds
25386.58David Hicken   Rochester Hills, MI0:46:57.30 251192  308 Team O2/Cadieux Bicycle Club
26394.41Adam Sulkes   Westland, MI0:48:02.11 191897  317 Racing Greyhounds
27402.24Douglas McKibbon   Farmington Hills, MI0:48:04.27 276085  312 Wolverine Sports Club
DNFWilliam Verbarg   St. Louis, MO 134044  319 

Men - PRO/1/2

 Place Points NameCity, StateTime USAC #BibTeam
1Ryan Antelson   1:41:22.12  32 Panther p/b Competitive Cyclist
2Ed Veal   1:41:28.67  33 Real Deal Racing
3Glen Rendall   1:41:29.11  29 Ride with Rendall
4124.58Martin Vecchio   Detroit, MI1:41:29.20 289623  35 Lathrup Industries/Giant Bicycl
5131.87Paul Martin (1 - Cat1)   North Royalton, OH1:41:29.26 207549  13 Panther p/b Competitive Cyclist
6139.16David (Shawn) Adams   Akron, OH1:41:29.68 179664  Carbon Racing
7146.45Ryan Knapp   Columbus, IN1:41:29.77 161263  12 Panther p/b Competitive Cyclist
8Jim Baldesase   1:41:29.95  37 CCSH/RGF
9161.03Ronald Catlin (1 - Cat2)   Ray Township, MI1:41:30.16 296981  41 RBS Race Team
10168.32Matt Celek (2 - Cat2)   Cuyahoga Falls, OH1:41:30.22 319220  Ride On Wooster
11Chris Freeland   1:41:30.53  25 Wielenman
12Kevin Black   1:41:30.68  26 Octto Cervelo
13190.19Brian Adams (2 - Cat1)   Novi, MI1:41:32.56 80614  Lathrup Industries/Giant Bicycl
14Casey Roth   1:42:27.11  28 Ride with Rendall
15204.77Jonathan Card   Sylvania, OH1:42:45.91 6078  
16212.06Scott Hoffner   Milford, MI1:43:41.48 294925  
17219.35Andrew Clarke (3 - Cat1)   Medina, OH1:43:41.61 212538  Panther p/b Competitive Cyclist
18226.64Luke Cavender (3 - Cat2)   Troy, MI1:43:41.62 199544  39 Wolverine Sports Club
19David Byer   1:43:41.67  24 Octto Cervelo
20241.22Benjamin Rollenhagen (4 - Cat2)   East Lansing, MI1:43:41.95 240802  15 Tri-City Cyclists/Tri City Cycl
21248.51Brent Goetz (5 - Cat2)   Toledo, OH1:43:42.69 336412  Maumee Valley Wheelmen
22255.80Adam Kaye (6 - Cat2)   Ann Arbor, MI1:43:42.89 290612  36 Astellas Oncology
23263.09Geoff Kuyper (7 - Cat2)   Grand Rapids, MI1:43:43.29 266805  31 Leadout Racing
24270.38Mark Hotchkin (8 - Cat2)   Ionia Mi1:43:43.40 190321  10 Leadout Racing
25277.67Aaron Cruikshank   Akron, OH1:43:43.73 258844  Carbon Racing
26284.96Adam York   Okemos Mi1:43:44.28 210584  20 Cleveland Clinic Sports Health
27292.25Jason Hess (9 - Cat2)   Commerce Township, MI1:43:44.56 48059  104 
28299.54Alan Zoltowski (10 - Cat2)   Canton, MI1:43:45.57 66373  21 Lathrup Industries/Giant Bicycl
29306.83Tim Finkel (11 - Cat2)   Royal Oak, MI1:43:45.75 216738  40 Wolverine Sports Club
30314.12Jamie Smith (12 - Cat2)   Rochester, MI1:43:51.08 33160  34 Flyiing Rhino
31321.41Cory Stange (13 - Cat2)   Millington, MI1:43:51.61 260216  16 Bissell/ABG Cycling Club
32328.70Robert Hockin (14 - Cat2)   Flint, MI1:43:53.52 164410  42 Team Giant
33335.99Tom Linck (15 - Cat2)   Ada, MI1:43:57.34 225784  157 Leadout Racing
34343.28Patrick Walle (16 - Cat2)   Nashville, TN1:44:05.06 341776  22 Minerva Design Cycling Team/Gen
35350.57Robert Selle (17 - Cat2)   Oakland Twp, MI1:44:06.29 102586  23 RBS Race Team
36Bryan Kryper   1:44:15.11  27 Leadout Racing
37365.15Raymond Dybowski   Waterford, MI1:45:01.09 10313  154 Wolverine Sports Club
DNFJoesph Iuliano (Cat2)   Muleshoe Tx 237283  11 Astella Oncology p/b ABD Cyclin
DNFRyan Rodd (Cat2)   Birmingham, MI 310993  14 Wolverine Sports Club
DNFChristopher Uberti (Cat1)   Greenville, SC 238311  17 Panther p/b Competitive Cyclist
DNFJason Buccellato   Lake Orion, MI 123641  18 KLM/Cold Stone
DNFDaniel Yankus (Cat2)   Milford, MI 102694  19 Team Priority Health
DNFDaniel Klein (Cat2)   Berkley, MI 19336  30 Lathrup Industries/Giant Bicycl
DNFJeremy Grimm (Cat1)   Orrville, OH 187082  38 Cleveland Clinic Sports Health
DNFRandall Rodd   Ferndale, MI 290060  43 Wolverine Sports Club
DNFJohn Gabriel (Cat1)   West Bloomfield, MI 214876  101 Sho-air/Rock 'n Road/Team Velos
DNFJeff Gray (Cat2)   Troy, MI 187265  103 Essex Brass Cycling Team/Presti
DNFDan Korienek (Cat2)   Grandville, MI 288930  105 Leadout Racing
DNFDavid Mullins (Cat2)   Berkley, MI 66064  108 Prestige Cycling Club
DNFBruce Rivera (Cat2)   Beverly Hills, MI 64577  110 Essex Brass Cycling Team/Presti
DNFPaul Rivera   Southfield, MI 131480  111 Essex Brass Cycling Team/Presti
DNFRich Russell (Cat2)   Oxford, MI 228348  112 Essex Brass Cycling Team/Presti
DNFTimothy Saari   Rochester Hills, MI 197477  113 Prestige Cycling Club
DNFKenneth Vernier (Cat2)   Sterling Heights, MI 201821  114 Prestige Cycling Club
DNFWilliam McLaughlin     118 Maumee Valley Wheelmen

Men - MASTER - 35-44

 Place Points NameCity, StateTime USAC #BibTeam
1138.70John Gabriel (1 - Cat1)   West Bloomfield, MI0:52:15.07 214876  101 Sho-air/Rock 'n Road/Team Velos
2Matthias Schmidt   0:52:15.25  120 Wheels of Bloor
3154.34Dan Korienek (1 - Cat2)   Grandville, MI0:52:15.37 288930  105 Leadout Racing
4162.16Jason Hess (2 - Cat2)   Commerce Township, MI0:52:15.39 48059  104 
5169.98Lucas Wall (3 - Cat2)   Superior Township, MI0:52:15.65 54490  115 Ann Arbor Velo Club/Ann Arbor
6177.80Paolo Eugeni   0:52:15.71 412807  121 Wheels of Bloor
7Marc Polsinecci   0:52:15.83  165 TDI-Zuck Brakes
8193.44Tom Linck (4 - Cat2)   Ada, MI0:52:16.17 225784  157 Leadout Racing
9201.26Rick Snow (5 - Cat2)   Macomb, MI0:52:16.44 56503  117 Team Giant MI
10209.08Andrew Oliveri   Glastonbury, CT0:52:16.61 297826  116 New Hampshire Cycling Club
11216.90Rich Russell (6 - Cat2)   Oxford, MI0:52:16.63 228348  112 Essex Brass Cycling Team/Presti
12Carlos Goncalves   0:52:16.64  167 T1C London Honda
13232.54Chris Vlemmix   0:52:16.68 356872  119 T1C London Honda
14240.36William McLaughlin (7 - Cat2)   Ferndale, MI0:52:16.75 76592  118 Maumee Valley Wheelmen
15248.18Christopher Matthews (1 - Cat3)   Rochester Hills, MI0:52:16.83 276259  107 Team O2/Cadieux Bicycle Club
16256.00Ray Dybowski   Waterford, MI0:52:17.11 10313  154 Wolverine
17263.82Patrick Robb (2 - Cat3)   Royal Oak, MI0:52:17.14 48371  325 Wolverine Sports Club
18271.64Nick Laughton (3 - Cat3)   Rochester, MI0:52:17.16 233026  362 Team O2/Cadieux Bicycle Club
19279.46Mark Cahn (8 - Cat2)   W Bloomfield, MI0:52:17.34 45148  152 Team O2/Cadieux Bicycle Club
20287.28Jerry Gase II (4 - Cat3)   W. Bloomfield, MI0:52:17.35 269005  306 Team O2/Cadieux Bicycle Club
21295.10Larry Kilbane (9 - Cat2)   Strongsville, OH0:52:17.54 45541  170 Cleveland Clinic
22302.92Gregory Garrett (1 - Cat4)   Hudsonville, MI0:52:17.65 57496  102 Speed Merchants
23310.74Michael Wyczalek (10 - Cat2)   Goodrich, MI0:52:17.90 39106  162 
24318.56Marten Mann   0:52:18.37 387772  106 Reynold Cycle T1C
25326.38Douglas Burcicki (5 - Cat3)   Canton, MI0:52:18.46 228512  303 Team O2/Cadieux Bicycle Club
26334.20Michael Dega (11 - Cat2)   Farmington Hills, MI0:52:18.54 264316  153 Team O2/Cadieux Bicycle Club
27342.02Scott Claes (12 - Cat2)   W Bloomfield, MI0:52:18.78 106137  173 Swamis
28349.84Aaron VandeWege (6 - Cat3)   Rockford, MI0:52:22.38 334316  318 Speed Merchants
29357.66Colin Hebert (7 - Cat3)   Brighton, MI0:52:23.05 293700  307 Ann Arbor Velo Club
30365.48Paul Rivera (8 - Cat3)   Southfield, MI0:52:23.33 131480  111 Essex Brass Cycling Team/Presti
31373.30Thomas Novitsky (2 - Cat4)   Northville, MI0:52:23.76 227191  369 Cycle To Fitness Racing Greyhou
32Simon Dearing   0:52:23.82  166 T1C London Honda
33388.94Douglas Gatto (3 - Cat4)   Allen Park, MI0:52:23.98 196826  357 Trails-Edge Cycling Team/Midwes
34396.76James Ignash (13 - Cat2)   Clawson, MI0:52:24.81 276023  156 Team O2/Cadieux Bicycle Club
35404.58Brian Batke (2 - Cat1)   Novelty, OH0:52:25.59 99527  151 Carbon Racing
36412.40Terry Ritter (14 - Cat2)   Royal Oak, MI0:52:26.03 135609  160 
37420.22David Rieland (9 - Cat3)   Troy, MI0:52:27.08 29849  109 Team O2/Cadieux Bicycle Club
38428.04Anthony Bruley (3 - Cat1)   Rochester Hills, MI0:52:33.81 80460  100 Team O2/Cadieux Bicycle Club
39435.86Adam Sulkes (10 - Cat3)   Westland, MI0:52:39.37 191897  317 Racing Greyhounds
40Joe Naraso   0:52:46.59  168 T1C London Honda
41Mike Renneboog   0:52:53.16  409 T1C London Honda
42459.32David Mullins (15 - Cat2)   Berkley, MI0:54:12.20 66064  108 Prestige Cycling Club

Men - MASTER - 45-54

 Place Points NameCity, StateTime USAC #BibTeam
1Marc Polsinecci   0:41:35.61  165 TDI-Zuck Brakes
2263.46Scott Claes (1 - Cat2)   W Bloomfield, MI0:41:35.96 106137  173 
3272.13Tom Linck (2 - Cat2)   Ada, MI0:41:35.98 225784  157 Leadout Racing
4Mike Peshko   0:41:36.16  163 Wheels of Bloor
5Carlos Goncalves   0:41:36.17  167 T1C London Honda
6298.14Michael Wyczalek (3 - Cat2)   Goodrich, MI0:41:36.27 39106  162 
7306.81Matthew Hepp (1 - Cat4)   Howell, MI0:41:36.34 323106  359 Cyclefit Sports Club
8315.48Mark Cahn (4 - Cat2)   W Bloomfield, MI0:41:36.38 45148  152 Team O2/Cadieux Bicycle Club
9324.15Scott Kroske   Birmingham, MI0:41:36.47 225584  172 Wolverine Sports Club
10332.82Raymond Barbehenn (1 - Cat3)   Ann Arbor, MI0:41:36.56 63608  150 Ann Arbor Velo Club
11341.49Armando Vega (2 - Cat3)   Oxford, MI0:41:36.57 217039  161 MPI- Main Street Racing team
12350.16Larry Kilbane (5 - Cat2)   Strongsville, OH0:41:36.96 45541  170 Cleveland Clinic
13358.83Raymond Dybowski   Waterford, MI0:41:37.08 10313  154 Wolverine Sports Club
14367.50Michael Dega (6 - Cat2)   Farmington Hills, MI0:41:37.11 264316  153 Team O2/Cadieux Bicycle Club
15376.17Robert Akers (7 - Cat2)   Farmington Hills, MI0:41:37.13 55021  169 Wolverine Sports Club
16384.84Peter Vajda   Ferndale, MI0:41:37.19 364638  375 Team O2/Cadieux Bicycle Club
17393.51Tom Clark (2 - Cat4)   Sterling Heights, MI0:41:37.29 262346  171 Bike Sport Shop
18402.18Michael Gardynik (3 - Cat4)   Farmington Hills, MI0:41:37.41 299723  155 Flying Rhino Cycling Club
19410.85Terry Ritter (8 - Cat2)   Royal Oak, MI0:41:37.44 135609  160 
20Simon Dearing   0:41:37.54  166 T1C London Honda
21Joe Naraso   0:41:37.76  168 T1C London Honda
22436.86Ken Misch (4 - Cat4)   Carmel, IN0:41:37.98 251397  366 Flying Rhino Cycling Club
23445.53David Hicken (3 - Cat3)   Rochester Hills, MI0:41:38.29 251192  308 Team O2/Cadieux Bicycle Club
24454.20Greg Cushing   0:41:38.85 379143  164 TDI-Zuck Brakes
25462.87Jeff Warner (5 - Cat4)   Temperance, MI0:41:40.04 249166  384 Maumee Valley Wheelmen
26471.54Brian Batke (1 - Cat1)   Novelty, OH0:41:40.86 99527  151 Carbon Racing
27480.21James Ignash (9 - Cat2)   Clawson, MI0:41:41.37 276023  156 Team O2/Cadieux Bicycle Club
28488.88Kris Peterson (6 - Cat4)   Flushing, MI0:41:41.81 230869  159 Cyclefit Sports Club
29497.55Nigel Mullis (7 - Cat4)   Rochester, MI0:44:11.28 333396  367 Team O2/Cadieux Bicycle Club
DNFjames nugent   Lasalle 387685  158 unattached

Men - MASTER - 55-99

 Place Points NameCity, StateTime USAC #BibTeam
1Mike Renneboog   0:41:35.98  409 TIC London Honda
2323.29Mark Warner (1 - Cat4)   Lansing, MI0:41:36.00 299805  404 CFT Cycling Team/TNR Cycling Cl
3343.56Fredrick Anderson (1 - Cat2)   Okemos, MI0:41:36.06 1625  400 West Michigan Coast Riders
4363.83John Shedlock (1 - Cat3)   Wixom, MI0:41:36.17 61308  402 Ann Arbor Velo Club
5384.10Larry Bohnsack (2 - Cat3)   Brighton, MI0:41:36.61 40759  406 Wheels in Motion
6Bruce Camacho   0:41:36.94  405 D'Ornellas
7424.64Charlie Squires   London0:41:38.25 380812  410 
8444.91Loren Simons (3 - Cat3)   St Johns, MI0:42:00.26 47936  403 Team Priority Health
9465.18EJ Levy (4 - Cat3)   Bloomfield Hills Mi0:43:01.45 21031  407 Team O2/Cadieux Bicycle Club
10485.45Mark Olin   Rochester, MI0:44:11.35 270538  268 
11Ron Ferreira   0:44:22.86  408 
DNFCharlie Squires   London 380812  169 T1C London Honda

Men - JUNIOR - 10-12

 Place Points NameCity, StateTime USAC #BibTeam
1521.92Douglas Wells   Rochester Hills, MI0:29:10.84 341850  455 Wolverine Sports Club
2Johnathan Peshko   0:29:13.45  475 
3544.62River Barden   Mount Pleasant, MI0:30:21.16 371688  473 TTC
4555.97Colin Boulard   South Lyon0:30:21.74 384730  474 AVCC
5567.32Joseph Cotton   Howell, MILap1.05 385291  471 
6578.67Anthony Bruley   Rochester Hills, MILap1.08 378132  458 Cadieux Bicycle Club
7Anton Dershem   Relegated  472 

Men - JUNIOR - 13-14

 Place Points NameCity, StateTime USAC #BibTeam
1449.19Luke Mullis   Rochester Hills, MI0:25:29.57 296792  368 Wolverine Sports Club
2495.92Keegan Korienek   Grandville, MI0:25:31.44 314012  188 Leadout Racing
3542.65Cody Denison   Macomb, MI0:27:14.43 319730  186 Wolverine Sports Club
4589.38Anup Diwakar   Rochester Hills, MI0:27:22.52 383126  187 

Men - JUNIOR - 15-16

 Place Points NameCity, StateTime USAC #BibTeam
1439.02Cameron Mason   0:28:04.93 387805  453 Team Attack
2451.21Christian Ricci   0:28:11.12 387624  217 
3463.40Cameron Buccellato   Lake Orion, MI0:28:12.41 388333  456 KLM Bike and Fitness
4475.59Kyle Bohnsack   Brighton, MI0:28:15.15 335180  450 
5487.78Nathan Perkins   Fremont, MI0:28:15.47 306240  454 West Michigan Coast Riders
6499.97Cale Denison   Macomb, MI0:28:38.15 319726  451 Wolverine Sports Club
7512.16Nicholas Feringa   Grosse Pointe, MI0:29:00.39 378228  457 
8524.35Luke Mullis   Rochester Hills, MI0:29:03.67 296792  368 Wolverine Sports Club
9536.54George Evans   Ann Arbor, MI0:30:17.30 386857  452 
DNSDouglas Wells   Rochester Hills, MI 341850  455 Wolverine Sports Club
DNFSeth Fickel   Chesterton, IN 283239  356 

Men - JUNIOR - 17-18

 Place Points NameCity, StateTime USAC #BibTeam
1468.89Matt Brophy   Macedon, NY0:28:05.42 319542  177 GVCC G2 Development Team
2529.45Dylan Gonda   Portage, MI0:28:38.18 315864  175 CMS Race Team/Kalamazoo Bicycle
3590.01Gabe Rice   Kalamazoo, MI0:29:00.44 380686  176 CMS Race Team/Kalamazoo Bicycle

Women - CAT 4

 Place Points NameCity, StateTime USAC #BibTeam
1485.09Marie Dershem   Grand Rapids0:27:58.71 366832  77 Team Priority Health
2493.10Sarah Williams   Grand Rapids, MI0:28:11.84 366227  82 REAL WOMEN TRI
3501.11JoAnn Cranson   Lake Odessa, MI0:28:12.56 354324  76 Fusion / LIVESTRONG/Fusion Cycl
4509.12Emma Fickel   Rochester Hills, MI0:31:26.76 324218  476 
5517.13Meadow Summers   Haslett, MI0:31:26.79 386858  81 
6Kristel Coronodo   0:32:01.39  86 
7Jennifer Tantanella   0:32:54.69  85 
8541.16Stephanie kerner   Shelby Twp, MILap1.01 387460  78 
9549.17Sarah Roberts   Chesterfield, MILap1.02 387453  80 
10557.18Kasia Ostrowski   Rochester, MILap1.03 387575  79 
11Elizabeth Gray   Lap1.04  83 

Women - CAT 3

 Place Points NameCity, StateTime USAC #BibTeam
1259.89Dori Leib   Farmington Hills, MI0:40:48.69 350220  427 Wolverine Sports Club
2281.93Abby Martin   Grand Rapids, MI0:40:49.04 317498  424 Grand Rapids Bicycle Co
3303.97LuAnne Murray   London, OH0:40:49.39 48868  84 Krettler Racing
4326.01Kristen Jukowski   Baltimore Md0:40:49.68 356911  422 Team O2/Cadieux Bicycle Club
5348.05Chantal Thompson   0:40:49.77 382627  425 Madonna Wheelers Cycling Club
6370.09Laura Korienek   Grandville, MI0:40:49.96 300609  423 REAL WOMEN TRI
7392.13Chelsea Clark   Grand Rapids, MI0:40:50.01 309613  426 Team Priority Health
8414.17Lori Hotchkin   Hudsonville Mi0:40:50.09 333304  421 REAL WOMEN TRI
9436.21Danielle Mullis   Rochester, MI0:40:51.40 296790  462 Wolverine Sports Club
10458.25Mary Dekker   Grand Rapids, MI0:41:01.50 104578  420 Fusion / LIVESTRONG/Fusion Cycl

Women - PRO/1/2

 Place Points NameCity, StateTime USAC #BibTeam
1261.39Candice Vermeulen   0:40:49.02 386377  92 Invita FCV
2367.83Sarah Demerly (1 - Cat2)   Berkley, MI0:40:49.12 293788  93 Fusion/Livestrong
3474.27Alicia Trevino (2 - Cat2)   Saginaw, MI0:40:49.62 278555  91 Fusion / LIVESTRONG/Fusion Cycl

Women - JUNIOR - 10-12

 Place Points NameCity, StateTime USAC #BibTeam
1540.00Caitlin Denison   Macomb, MILap1.01 352692  195 Wolverine Sports Club
2556.67Ellie Korienek   Grandville, MILap1.02 334622  196 REAL WOMEN TRI
3573.34Kiersen Korienek   Grandville, MILap1.04 375606  197 REAL WOMEN TRI
4590.01Arianna Payn   Troy, MILap2.0 377592  198 

Women - JUNIOR - 13-14

 Place Points NameCity, StateTime USAC #BibTeam
1535.24Emma Fickel   Rochester Hills, MI0:28:06.11 324218  476 
2562.62Sarah Fickel   Chesterton, INLap1.03 298970  477 Team Kenda presented by Geargri
3590.00Olivia Johnson   Rochester HillsLap1.07 395058  478 

Women - JUNIOR - 17-18

 Place Points NameCity, StateTime USAC #BibTeam
1Sarah Mason   0:27:54.22 387803  461 Invita FCV
2Danielle Mullis   Rochester, MI0:30:09.42 296790  462 Wolverine Sports Club

Report missing or incorrect license numbers

Volkswagen
Sierra NevadaUSACDFSpyShimanoBonk Breaker
UCI USA Cycling is the official governing body for all disciplines of competitive cycling in the United States. The 501c3, membership-based organization aims both to achieve sustained success in international cycling competition and to grow competitive cycling in America while delivering an exceptional customer experience.
View Children's Online Privacy Protection Policy
US Olympic Committee